EW9660 Weather Reports


time (UTC)temp
F
wind
direction
speed
knots
gust
knots
rain 1hr
in
rain 24hr
in
rain mn
in
humidity
%
barometer
mb
20260505001529 66 301 0.0 1.7 0.00 0.00 0.00 45 1013.9
20260505000026 67 161 0.0 1.7 0.00 0.00 0.00 43 1013.8
20260504234513 69 161 0.0 0.9 0.00 0.00 0.00 42 1013.7
20260504233045 70 295 0.0 0.9 0.00 0.00 0.00 39 1013.5
20260504231514 71 262 0.0 0.9 0.00 0.00 0.00 39 1013.4
20260504230018 72 101 0.0 1.7 0.00 0.00 0.00 37 1013.3
20260504224551 73 187 0.0 1.7 0.00 0.00 0.00 37 1013.4
20260504223036 74 187 0.0 2.6 0.00 0.00 0.00 35 1013.4
20260504221516 75 240 0.0 2.6 0.00 0.00 0.00 32 1013.3
20260504220051 76 247 0.0 3.5 0.00 0.00 0.00 30 1013.4
20260504214544 76 164 0.0 3.5 0.00 0.00 0.00 34 1013.4
20260504213017 77 140 1.7 3.5 0.00 0.00 0.00 30 1013.4
20260504211556 78 41 1.7 5.2 0.00 0.00 0.00 26 1013.4
20260504210030 78 213 2.6 6.1 0.00 0.00 0.00 27 1013.6
20260504204515 77 136 1.7 5.2 0.00 0.00 0.00 27 1013.6
20260504203055 78 181 1.7 7.0 0.00 0.00 0.00 30 1013.8
20260504201525 78 179 1.7 5.2 0.00 0.00 0.00 29 1013.9
20260504200051 78 180 0.9 8.7 0.00 0.00 0.00 28 1014.2
20260504194521 78 146 1.7 6.1 0.00 0.00 0.00 29 1014.3
20260504193100 77 348 3.5 7.8 0.00 0.00 0.00 32 1014.4
20260504191535 78 98 1.7 6.1 0.00 0.00 0.00 29 1014.6
20260504190003 79 207 3.5 8.7 0.00 0.00 0.00 29 1014.8
20260504184615 78 296 1.7 5.2 0.00 0.00 0.00 28 1014.9
20260504183039 77 148 0.9 4.3 0.00 0.00 0.00 32 1015.0
20260504181527 77 330 1.7 5.2 0.00 0.00 0.00 31 1015.1
20260504180019 76 157 1.7 5.2 0.00 0.00 0.00 25 1015.3
20260504174506 76 360 2.6 7.8 0.00 0.00 0.00 27 1015.3
20260504173014 76 113 0.9 6.1 0.00 0.00 0.00 27 1015.6
20260504171538 75 360 0.9 3.5 0.00 0.00 0.00 28 1015.9
20260504160103 71 165 0.9 4.3 0.00 0.00 0.00 32 1017.1
20260504081507 41 19 0.0 0.0 0.00 0.00 0.00 85 1016.4
20260504070109 44 19 0.0 0.0 0.00 0.00 0.00 82 1016.4
20260504044535 47 196 0.0 0.0 0.00 0.00 0.00 79 1016.4
20260504043032 47 196 0.0 0.0 0.00 0.00 0.00 78 1016.4
20260504041516 48 196 0.0 0.0 0.00 0.00 0.00 78 1016.5
20260504040059 48 196 0.0 0.0 0.00 0.00 0.00 76 1016.9
20260504034551 49 196 0.0 0.0 0.00 0.00 0.00 75 1016.9
20260504033004 49 196 0.0 0.0 0.00 0.00 0.00 75 1016.9
20260504031520 50 196 0.0 0.0 0.00 0.00 0.00 73 1016.9
20260504030105 50 196 0.0 0.0 0.00 0.00 0.00 72 1016.9
20260504024559 51 196 0.0 0.0 0.00 0.00 0.00 71 1016.9
20260504023031 51 196 0.0 0.0 0.00 0.00 0.00 70 1016.6
20260504021517 51 196 0.0 0.9 0.00 0.00 0.00 68 1016.4
20260504020013 52 196 0.0 0.9 0.00 0.00 0.00 66 1016.3
20260504014557 53 196 0.0 0.9 0.00 0.00 0.00 65 1016.0
20260504013054 54 196 0.0 0.0 0.00 0.00 0.00 61 1015.9
20260504011525 56 196 0.0 0.0 0.00 0.00 0.00 57 1015.8
20260504010003 57 196 0.0 0.9 0.00 0.00 0.00 54 1015.6
20260504004531 58 196 0.0 0.0 0.00 0.00 0.00 51 1015.6
20260504003035 59 196 0.0 1.7 0.00 0.00 0.00 48 1015.4